Date,TemperatureHighF,TemperatureAvgF,TemperatureLowF,DewpointHighF,DewpointAvgF,DewpointLowF,HumidityHigh,HumidityAvg,HumidityLow,PressureMaxIn,PressureMinIn,WindSpeedMaxMPH,WindSpeedAvgMPH,GustSpeedMaxMPH,PrecipitationSumIn
2013-1-1,42,36,31,35,32,30,96,87,73,30.46,30.31,6,1,9,0.01
2013-1-2,47,36,30,36,31,26,96,83,48,30.31,30.15,6,0,11,0.01
2013-1-3,47,37,29,37,30,25,97,79,43,30.16,30.04,12,1,15,0.01
2013-1-4,49,44,38,45,42,37,98,92,84,30.25,30.11,12,2,17,0.01
2013-1-5,46,44,41,41,39,35,95,83,71,30.15,30.06,13,2,15,0.01
2013-1-6,46,43,41,43,40,39,95,90,82,30.13,29.93,15,5,20,0.01
2013-1-7,51,47,42,48,44,40,100,90,82,30.10,29.73,25,8,33,0.01
2013-1-8,54,48,42,50,45,41,98,92,84,30.10,29.68,33,8,41,0.01
2013-1-9,51,42,37,49,40,35,96,92,85,29.89,29.62,25,6,34,0.01
2013-1-10,40,37,32,37,35,30,94,90,78,30.06,29.88,7,1,11,0.01
2013-1-11,35,32,29,32,29,27,97,89,76,30.27,30.06,6,1,9,0.01
2013-1-12,37,31,27,30,27,25,98,88,65,30.40,30.27,11,1,13,0.01
2013-1-13,36,31,27,31,28,26,96,88,71,30.45,30.39,5,0,6,0.01
2013-1-14,38,35,33,34,31,28,89,84,77,30.52,30.43,7,1,7,0.01
2013-1-15,43,38,34,36,34,32,93,85,68,30.65,30.52,9,0,11,0.00
2013-1-16,42,34,30,37,32,29,99,93,78,30.64,30.48,5,0,7,0.01
2013-1-17,37,34,30,37,33,30,99,98,95,30.48,30.25,5,1,6,0.00
2013-1-18,37,34,32,37,34,32,100,99,98,30.31,30.22,7,1,10,0.00
2013-1-19,36,34,31,35,33,31,100,99,96,30.35,30.30,7,2,10,0.00
2013-1-20,39,35,32,38,34,32,100,99,94,30.35,30.22,6,2,7,0.00
2013-1-21,36,33,31,36,33,31,100,99,99,30.24,30.10,9,1,9,0.00
2013-1-22,39,35,32,38,34,31,100,97,90,30.10,29.86,5,1,5,0.00
2013-1-23,44,42,39,42,39,34,97,89,76,30.08,29.80,12,2,15,0.02
2013-1-24,46,43,41,42,40,37,97,89,72,30.16,30.01,11,2,14,0.02
2013-1-25,51,46,42,45,43,40,99,90,75,30.02,29.88,14,3,18,0.01
2013-1-26,45,43,41,42,40,39,96,89,83,29.97,29.84,16,4,23,0.01
2013-1-27,43,42,40,40,39,37,96,90,84,30.01,29.93,20,5,25,0.01
2013-1-28,43,42,40,42,40,38,100,95,92,30.03,29.95,7,1,11,0.01
2013-1-29,48,45,42,46,44,42,98,96,91,30.28,30.03,18,3,21,0.01
2013-1-30,48,46,45,48,46,44,100,99,97,30.33,30.27,7,1,10,0.01
2013-1-31,50,48,46,47,46,45,100,95,85,30.34,30.25,16,3,23,0.01
2013-2-1,50,46,43,47,44,42,99,95,84,30.35,30.28,10,1,11,0.01
2013-2-2,43,41,39,42,40,38,99,97,95,30.33,30.21,10,2,12,0.01
2013-2-3,48,44,39,44,42,39,99,94,87,30.24,30.15,8,2,12,0.01
2013-2-4,50,47,45,45,43,42,95,88,76,30.15,29.83,10,2,13,0.01
2013-2-5,51,47,45,44,43,42,95,87,73,29.87,29.79,26,8,30,0.01
2013-2-6,50,46,44,43,42,40,92,85,68,30.00,29.73,21,6,29,0.01
2013-2-7,50,45,38,42,38,36,93,79,62,30.13,29.74,24,6,30,0.01
2013-2-8,45,41,36,40,38,35,98,90,76,30.25,30.14,5,0,6,0.01
2013-2-9,44,42,41,42,40,38,96,91,80,30.28,30.21,5,0,7,0.01
2013-2-10,46,41,35,41,38,35,100,92,71,30.33,30.28,9,1,12,0.01
2013-2-11,47,44,41,43,41,39,97,89,78,30.31,30.28,10,1,13,0.01
2013-2-12,51,47,45,47,45,42,98,93,83,30.36,30.25,19,5,26,0.01
2013-2-13,49,46,45,46,43,41,96,89,84,30.45,30.26,11,2,18,0.01
2013-2-14,48,46,44,46,44,41,100,92,86,30.51,30.45,10,1,11,0.01
2013-2-15,56,46,41,47,43,40,100,92,70,30.51,30.20,9,2,10,0.01
2013-2-16,53,46,42,45,42,39,97,87,65,30.14,30.06,22,5,27,0.01
2013-2-17,45,42,41,40,38,37,94,86,73,30.19,30.06,11,2,12,0.01
2013-2-18,45,43,40,40,39,36,94,86,71,30.06,29.71,18,2,18,0.01
2013-2-19,49,43,37,40,38,34,95,82,55,29.96,29.68,11,1,15,0.01
2013-2-20,45,41,36,41,38,34,97,91,80,29.99,29.94,16,2,21,0.01
2013-2-21,45,42,40,41,40,38,97,90,83,30.01,29.95,27,8,33,0.01
2013-2-22,45,42,40,42,38,35,92,84,78,29.85,29.67,33,11,37,0.01
2013-2-23,47,43,40,40,38,36,94,82,66,30.33,29.85,13,5,19,0.01
2013-2-24,48,45,41,39,37,36,87,75,64,30.33,29.90,24,8,28,0.01
2013-2-25,52,45,41,40,37,31,92,76,45,30.25,29.82,28,9,35,0.01
2013-2-26,47,44,39,38,36,33,88,74,58,30.29,30.14,17,5,22,0.01
2013-2-27,48,44,41,44,41,38,100,90,77,30.25,30.15,14,2,18,0.01
2013-2-28,53,48,43,51,46,42,98,96,93,30.27,30.14,18,4,24,0.01
2013-3-1,58,54,52,52,51,49,97,88,79,30.31,30.22,23,9,29,0.01
2013-3-2,56,50,40,50,46,38,95,86,75,30.22,30.02,23,8,30,0.01
2013-3-3,49,42,37,39,36,32,95,83,54,30.27,30.16,12,2,16,0.01
2013-3-4,53,43,33,35,32,28,94,69,40,30.27,29.88,14,3,18,0.01
2013-3-5,49,45,40,41,37,31,90,75,55,29.88,29.69,9,1,13,0.01
2013-3-6,44,43,41,42,40,39,96,91,82,29.85,29.54,11,2,16,0.01
2013-3-7,51,45,41,44,42,40,97,89,68,30.05,29.85,13,1,15,0.01
2013-3-8,52,42,36,42,39,35,99,89,68,30.20,30.04,11,1,13,0.01
2013-3-9,51,40,34,43,38,34,100,92,70,30.45,30.20,8,0,9,0.01
2013-3-10,46,43,40,43,40,37,95,90,82,30.45,30.39,9,1,9,0.01
2013-3-11,50,46,43,47,43,41,97,90,77,30.40,30.13,5,1,10,0.01
2013-3-12,56,52,48,51,49,47,96,90,75,30.12,30.02,30,12,33,0.01
2013-3-13,53,52,50,51,50,48,97,93,88,30.17,30.06,25,7,32,0.01
2013-3-14,53,51,48,50,48,45,98,90,74,30.10,29.99,14,4,22,0.01
2013-3-15,58,52,48,50,49,47,98,89,75,30.16,30.09,20,6,25,0.01
2013-3-16,50,46,40,46,40,36,89,81,68,29.97,29.83,23,10,31,0.01
2013-3-17,48,42,40,39,36,34,92,80,61,30.15,29.93,15,5,22,0.01
2013-3-18,51,44,40,41,38,34,94,78,51,30.20,30.06,24,6,36,0.01
2013-3-19,54,43,38,42,37,32,95,80,47,30.19,29.55,15,2,21,0.01
2013-3-20,51,47,41,50,42,34,97,84,71,29.96,29.34,34,10,40,0.01
2013-3-21,46,41,37,38,36,34,94,83,64,30.18,29.97,15,5,18,0.01
2013-3-22,45,39,36,36,33,28,95,81,52,30.34,30.18,12,2,14,0.01
2013-3-23,49,41,36,35,32,26,92,73,40,30.36,30.26,5,1,10,0.01
2013-3-24,54,43,34,39,34,30,93,74,40,30.26,30.08,6,0,7,0.01
2013-3-25,61,50,36,40,34,30,87,58,35,30.09,29.89,10,0,12,0.01
2013-3-26,59,51,46,44,40,37,83,67,45,29.98,29.91,10,1,10,0.01
2013-3-27,54,49,46,48,43,36,96,79,58,29.95,29.90,0,0,0,0.01
2013-3-28,61,51,44,49,47,44,98,86,58,30.11,29.95,0,0,0,0.01
2013-3-29,64,52,45,49,46,44,97,80,51,30.21,30.11,0,0,0,0.01
2013-3-30,65,53,44,49,46,42,96,77,50,30.22,30.04,11,1,15,0.01
2013-3-31,69,55,45,49,46,43,94,73,47,30.04,29.87,9,0,13,0.00
2013-4-1,62,53,48,50,48,45,94,82,65,30.12,29.93,14,2,22,0.01
2013-4-2,56,52,50,49,47,45,92,82,75,30.16,30.11,13,3,17,0.01
2013-4-3,61,53,47,50,46,44,95,80,56,30.15,29.91,6,0,12,0.00
2013-4-4,57,53,50,54,50,47,98,90,82,29.91,29.60,16,2,24,0.15
2013-4-5,57,53,49,52,49,46,96,88,75,29.82,29.68,29,9,33,0.07
2013-4-6,52,48,46,48,45,42,96,88,77,29.89,29.66,24,9,31,0.05
2013-4-7,46,44,41,44,42,39,95,93,90,29.83,29.45,11,2,17,0.03
2013-4-8,53,48,43,48,44,41,96,88,73,30.21,29.84,8,2,10,0.01
2013-4-9,54,50,44,46,43,38,94,79,61,30.30,30.14,13,2,16,0.00
2013-4-10,58,52,49,51,47,43,95,81,70,30.22,29.90,21,7,28,0.02
2013-4-11,51,48,44,44,41,38,95,78,61,30.27,30.14,13,4,17,0.02
2013-4-12,47,44,42,45,40,37,96,86,72,30.14,29.62,19,6,28,0.07
2013-4-13,48,43,39,43,40,36,96,88,77,29.95,29.71,21,6,27,0.30
2013-4-14,53,45,40,41,39,33,100,80,48,29.96,29.86,14,2,21,0.01
2013-4-15,54,46,41,42,40,37,94,81,52,30.13,29.90,22,2,27,0.00
2013-4-16,54,46,39,43,40,34,98,82,48,30.34,30.13,24,2,26,0.02
2013-4-17,58,49,40,44,40,36,94,73,44,30.40,30.34,11,2,16,0.00
2013-4-18,51,47,45,47,42,40,91,83,75,30.40,30.29,12,5,16,0.03
2013-4-19,54,52,48,52,50,48,98,95,88,30.16,30.01,11,3,17,0.15
2013-4-20,55,50,47,50,47,45,97,90,74,30.24,30.16,15,4,19,0.05
2013-4-21,53,47,44,46,42,39,96,84,64,30.33,30.19,11,2,16,0.01
2013-4-22,59,49,39,42,37,25,97,67,28,30.48,30.33,12,2,17,0.00
2013-4-23,61,49,38,43,38,27,94,68,28,30.39,30.20,15,2,19,0.00
2013-4-24,68,54,43,46,40,32,93,64,29,30.28,30.02,14,1,17,0.00
2013-4-25,70,56,45,49,43,38,88,63,35,30.08,30.00,7,1,10,0.00
2013-4-26,65,54,48,51,48,46,95,83,58,30.20,30.09,13,2,13,0.00
2013-4-27,56,54,52,49,47,42,86,76,61,30.18,30.11,19,10,27,0.00
2013-4-28,58,51,48,49,46,42,94,83,59,30.18,29.91,22,6,29,0.01
2013-4-29,54,48,43,48,40,31,96,75,43,30.11,29.86,14,5,21,0.01
2013-4-30,53,46,38,39,36,30,90,69,43,30.39,30.11,11,3,20,0.01
2013-5-1,63,50,37,43,36,28,92,64,28,30.53,30.39,15,2,19,0.00
2013-5-2,67,55,44,46,42,35,89,63,38,30.51,30.33,15,2,21,0.00
2013-5-3,71,58,46,51,45,41,89,65,44,30.36,30.19,13,3,17,0.00
2013-5-4,77,64,51,52,46,38,81,56,25,30.20,29.96,19,3,23,0.00
2013-5-5,81,66,51,52,47,41,88,55,26,29.96,29.73,13,2,15,0.00
2013-5-6,84,67,52,54,49,43,89,58,27,29.82,29.71,11,1,15,0.00
2013-5-7,70,60,52,56,52,50,92,77,59,29.96,29.79,16,4,19,0.00
2013-5-8,63,56,52,56,51,49,91,83,70,30.11,29.96,12,2,17,0.00
2013-5-9,70,58,51,56,52,48,95,83,46,30.17,30.07,11,1,12,0.00
2013-5-10,76,60,51,56,52,49,95,77,44,30.16,30.06,6,1,11,0.00
2013-5-11,79,64,56,57,51,45,86,63,42,30.14,29.95,12,2,13,0.00
2013-5-12,69,63,59,58,56,53,94,80,66,30.06,29.99,18,5,22,0.01
2013-5-13,62,57,51,57,51,43,93,81,61,30.15,29.90,22,7,35,0.01
2013-5-14,61,54,48,48,44,40,86,71,47,30.19,30.08,10,3,16,0.00
2013-5-15,62,54,49,52,48,43,94,79,51,30.09,29.99,11,2,17,0.02
2013-5-16,69,60,54,54,52,47,95,77,47,29.99,29.83,9,1,14,0.01
2013-5-17,62,57,54,52,50,45,90,76,58,30.02,29.92,17,6,21,0.00
2013-5-18,60,56,53,50,48,46,88,74,62,30.23,30.03,13,3,19,0.00
2013-5-19,64,57,54,52,50,48,88,77,57,30.36,30.24,10,2,16,0.00
2013-5-20,65,55,48,53,49,46,95,81,62,30.31,29.86,10,2,14,0.00
2013-5-21,56,51,47,50,46,44,95,85,66,29.86,29.74,15,3,20,0.07
2013-5-22,53,49,45,48,46,43,96,89,77,29.90,29.82,13,4,16,0.01
2013-5-23,55,50,46,47,45,42,95,84,68,29.98,29.89,17,2,22,0.01
2013-5-24,61,54,48,51,47,45,95,80,55,30.02,29.94,14,3,19,0.01
2013-5-25,62,56,51,51,48,44,89,76,55,30.01,29.94,11,2,14,0.00
2013-5-26,62,56,51,54,51,49,96,86,70,29.96,29.91,11,1,20,0.01
2013-5-27,59,56,53,56,53,50,95,91,82,29.94,29.68,10,2,16,0.05
2013-5-28,60,56,53,52,50,48,93,81,69,29.85,29.74,21,6,24,0.00
2013-5-29,60,54,50,52,50,48,96,86,67,29.93,29.65,21,3,22,0.01
2013-5-30,60,54,50,49,47,46,88,78,63,30.11,29.93,18,9,27,0.00
2013-5-31,65,60,55,50,46,42,78,60,45,30.31,30.21,14,2,14,0.00
2013-6-1,70,60,54,52,49,44,84,68,44,30.21,30.02,10,1,11,0.00
2013-6-2,68,60,54,55,51,47,89,72,50,30.06,30.01,11,2,14,0.01
2013-6-3,71,60,52,56,52,50,93,78,52,30.09,30.02,10,2,15,0.00
2013-6-4,77,65,53,59,53,48,93,68,43,30.10,29.99,8,1,15,0.00
2013-6-5,76,65,56,59,54,49,83,68,50,30.06,29.99,11,1,15,0.00
2013-6-6,78,66,56,56,52,46,91,64,36,30.02,29.97,15,1,16,0.00
2013-6-7,67,61,56,57,51,44,81,70,52,30.12,29.99,18,4,22,0.00
2013-6-8,66,59,54,52,50,48,83,74,60,30.16,30.06,12,3,14,0.00
2013-6-9,64,57,54,52,49,46,87,74,57,30.08,29.98,11,4,15,0.00
2013-6-10,67,60,52,52,49,44,85,69,47,30.00,29.83,11,3,15,0.00
2013-6-11,65,58,52,52,48,46,83,71,53,30.06,29.89,21,7,23,0.02
2013-6-12,65,58,54,52,49,45,85,71,52,30.10,30.05,17,5,20,0.00
2013-6-13,68,60,54,53,50,46,87,72,48,30.18,30.09,10,1,13,0.00
2013-6-14,65,59,55,52,50,48,81,72,58,30.20,30.03,15,5,19,0.00
2013-6-15,73,63,53,56,53,50,92,72,50,30.02,29.88,11,1,13,0.00
2013-6-16,72,64,56,58,55,52,88,74,57,30.06,29.96,12,2,15,0.00
2013-6-17,75,64,58,56,53,48,87,69,41,30.06,29.85,19,3,21,0.01
2013-6-18,71,63,56,55,51,45,91,68,40,29.95,29.84,14,3,20,0.00
2013-6-19,65,60,56,56,52,50,86,76,59,29.97,29.88,15,3,17,0.00
2013-6-20,61,57,54,55,52,50,96,86,72,30.08,29.92,15,5,17,0.33
2013-6-21,65,59,54,58,54,51,97,83,62,30.13,30.08,12,2,13,0.01
2013-6-22,76,64,55,59,54,50,93,72,45,30.09,29.81,10,1,14,0.00
2013-6-23,71,65,60,63,59,54,96,81,68,29.80,29.55,4,0,10,0.11
2013-6-24,67,62,57,61,56,54,96,83,64,29.66,29.54,18,5,26,0.02
2013-6-25,72,63,58,60,57,53,96,83,54,29.82,29.63,25,3,36,0.12
2013-6-26,70,63,58,61,58,57,96,84,68,30.03,29.80,14,2,20,0.01
2013-6-27,70,65,61,64,61,57,97,89,77,30.16,30.00,10,0,11,0.01
2013-6-28,85,72,61,66,63,60,95,76,47,30.15,30.00,9,1,14,0.00
2013-6-29,82,72,65,67,63,60,90,73,56,30.06,29.96,7,1,9,0.00
2013-6-30,90,76,63,68,63,58,86,67,38,29.99,29.80,10,1,14,0.00
2013-7-1,85,75,67,68,63,59,85,66,51,29.98,29.86,10,1,16,0.00
2013-7-2,79,70,62,63,58,53,88,68,44,30.07,29.99,14,3,24,0.00
2013-7-3,77,67,60,59,53,48,74,63,43,30.11,30.00,12,3,16,0.00
2013-7-4,69,63,58,56,54,52,86,74,58,30.08,29.99,10,2,13,0.00
2013-7-5,72,64,57,58,56,54,90,74,59,30.00,29.92,11,2,15,0.00
2013-7-6,76,66,58,60,57,53,93,73,45,29.95,29.82,10,1,21,0.00
2013-7-7,75,66,59,62,58,54,93,78,62,29.92,29.83,11,2,14,0.00
2013-7-8,78,65,57,61,57,54,89,77,48,30.05,29.90,13,3,14,0.00
2013-7-9,82,70,61,60,58,54,91,67,44,30.06,29.95,12,2,16,0.00
2013-7-10,70,63,59,59,55,51,86,77,65,30.03,29.91,14,2,17,0.00
2013-7-11,70,62,56,53,51,48,82,69,52,30.05,29.96,11,3,16,0.02
2013-7-12,72,69,66,56,53,51,63,57,54,30.07,29.97,0,0,0,0.00
2013-7-13,76,73,69,55,53,50,57,50,41,30.17,30.08,0,0,0,0.00
2013-7-14,77,74,70,55,54,51,56,49,41,30.10,29.95,0,0,0,0.00
2013-7-19,66,65,64,59,59,58,82,80,77,30.02,30.02,3,0,5,0.00
2013-7-20,64,60,58,59,56,55,93,89,82,30.03,30.02,5,1,9,0.00
2013-7-21,73,70,63,63,61,59,86,74,67,29.92,29.86,9,3,12,0.00
2013-7-22,78,65,57,62,58,55,96,81,51,30.02,29.90,11,2,11,0.00
2013-7-23,83,70,60,59,57,52,89,67,36,30.00,29.92,9,1,11,0.00
2013-7-24,83,71,62,58,54,49,77,58,36,29.99,29.94,9,1,12,0.00
2013-7-25,83,70,59,58,54,50,86,60,36,30.06,29.99,10,2,13,0.00
2013-7-26,82,69,59,58,53,44,86,60,29,30.11,30.03,16,3,18,0.00
2013-7-27,76,65,57,57,54,51,86,67,45,30.13,29.95,11,2,17,0.00
2013-7-28,68,60,54,57,54,52,92,82,67,29.99,29.91,15,4,19,0.00
2013-7-29,69,60,57,61,55,53,86,82,69,29.97,29.93,10,1,10,0.00
2013-7-30,76,65,57,60,57,54,90,76,56,30.09,29.96,11,3,13,0.00
2013-7-31,69,62,57,63,58,55,97,88,76,30.08,29.95,9,2,14,0.00
2013-8-1,66,62,56,59,56,54,94,83,72,30.02,29.99,13,5,20,0.00
2013-8-2,62,60,58,60,58,56,95,90,84,30.10,30.01,13,3,17,0.01
2013-8-3,72,65,60,62,59,58,96,84,64,30.08,30.00,8,1,9,0.00
2013-8-4,79,68,58,62,59,56,94,75,53,30.02,29.89,10,1,13,0.00
2013-8-5,84,71,60,62,59,55,93,69,37,29.95,29.88,8,0,9,0.00
2013-8-6,83,70,59,61,57,53,89,65,37,29.96,29.86,8,1,12,0.00
2013-8-7,84,70,59,63,58,55,91,68,39,29.97,29.89,9,1,12,0.00
2013-8-8,80,67,59,62,58,56,92,76,53,30.00,29.89,11,2,12,0.00
2013-8-9,81,70,61,62,58,53,84,66,46,29.91,29.79,13,1,15,0.00
2013-8-10,75,67,60,64,61,58,95,83,65,29.97,29.85,11,2,16,0.01
2013-8-11,73,65,59,60,56,54,88,75,56,30.02,29.94,11,3,15,0.00
2013-8-12,76,66,60,59,57,55,89,73,52,30.03,29.96,11,2,13,0.00
2013-8-13,79,68,60,60,57,55,88,71,45,30.06,29.88,10,1,11,0.00
2013-8-14,78,68,60,63,60,57,91,77,49,29.93,29.87,12,1,16,0.01
2013-8-15,69,67,64,66,64,62,95,91,83,29.96,29.89,8,1,9,0.01
2013-8-16,83,70,62,65,61,50,97,77,32,29.96,29.89,7,1,12,0.00
2013-8-17,76,69,64,62,59,56,84,72,60,30.04,29.96,13,3,18,0.00
2013-8-18,76,67,61,62,58,54,88,73,60,30.10,30.04,13,3,18,0.00
2013-8-19,76,67,62,61,57,53,82,70,56,30.08,30.02,12,2,16,0.00
2013-8-20,74,66,60,58,54,50,82,66,49,30.13,30.04,11,3,16,0.00
2013-8-21,78,67,57,59,55,51,90,65,49,30.06,29.89,10,1,15,0.00
2013-8-22,81,71,59,62,57,53,86,63,42,29.90,29.75,9,1,13,0.00
2013-8-23,73,67,62,60,58,55,89,73,59,29.85,29.77,18,6,21,0.00
2013-8-24,73,66,62,59,57,53,87,74,52,29.87,29.80,14,2,14,0.00
2013-8-25,71,64,57,61,56,54,90,76,58,29.90,29.82,9,1,12,0.02
2013-8-26,74,66,62,61,59,53,88,79,49,29.91,29.81,12,2,21,0.02
2013-8-27,77,68,63,62,60,56,89,75,57,29.91,29.75,12,1,14,0.01
2013-8-28,78,68,60,66,62,58,97,82,59,29.86,29.80,9,1,10,0.01
2013-8-29,72,68,65,67,64,61,96,90,78,29.97,29.82,11,2,16,0.22
2013-8-30,77,68,62,64,59,53,92,74,45,30.12,29.99,17,4,22,0.00
2013-8-31,79,67,58,62,59,56,94,76,53,30.06,29.81,7,0,13,0.00
2013-9-1,78,66,60,63,60,58,94,81,57,29.86,29.76,7,1,13,0.00
2013-9-2,80,73,66,61,60,57,80,64,50,29.89,29.82,12,2,14,0.00
2013-9-3,74,66,62,64,62,59,95,87,64,29.99,29.89,5,1,7,0.01
2013-9-4,69,65,61,63,61,59,94,87,77,30.01,29.96,10,1,13,0.01
2013-9-5,66,63,60,62,60,59,97,90,80,30.00,29.88,13,1,18,0.07
2013-9-6,71,64,61,64,62,60,99,92,78,30.08,29.89,12,2,13,0.01
2013-9-7,72,66,62,62,61,59,95,86,67,30.08,29.98,6,0,11,0.00
2013-9-8,76,66,59,67,61,58,97,84,61,30.08,29.99,8,1,11,0.00
2013-9-9,77,65,58,65,60,57,100,85,61,30.04,29.95,9,1,12,0.00
2013-9-10,77,66,57,64,61,56,98,84,64,29.97,29.85,11,2,14,0.00
2013-9-11,90,73,61,66,62,58,94,71,37,29.91,29.83,6,0,11,0.00
2013-9-12,79,68,60,64,61,59,97,81,55,29.97,29.87,7,1,10,0.00
2013-9-13,66,63,60,62,61,59,98,91,86,29.94,29.85,7,1,10,0.00
2013-9-14,68,64,61,62,61,59,94,89,81,29.85,29.71,10,1,10,0.00
2013-9-15,65,61,58,62,60,57,99,95,89,29.78,29.68,10,2,13,0.17
2013-9-16,68,62,60,61,58,54,94,87,75,29.90,29.78,18,6,22,0.01
2013-9-17,62,60,58,56,54,52,89,82,70,29.90,29.83,10,1,13,0.00
2013-9-18,67,60,56,56,54,52,93,81,61,30.04,29.91,11,1,12,0.00
2013-9-19,77,62,52,59,53,50,94,75,38,30.02,29.72,8,1,10,0.00
2013-9-20,73,63,57,59,55,51,95,77,53,29.72,29.55,14,3,25,0.07
2013-9-21,69,61,57,58,56,54,93,82,61,29.69,29.61,12,3,16,0.01
2013-9-22,61,59,56,56,54,50,93,86,70,29.68,29.54,27,9,31,0.03
2013-9-23,60,58,55,55,53,49,92,85,75,29.92,29.68,21,8,28,0.01
2013-9-24,57,54,52,53,51,50,94,91,80,29.91,29.81,9,2,14,0.01
2013-9-25,58,53,51,51,50,47,94,90,68,29.98,29.81,10,1,14,0.01
2013-9-26,62,54,47,52,50,46,98,87,65,30.08,29.98,10,1,12,0.00
2013-9-27,58,55,52,54,51,48,93,86,80,30.07,29.79,18,7,27,0.01
2013-9-28,61,57,53,59,55,50,97,93,87,29.80,29.30,26,8,29,0.18
2013-9-29,59,55,54,53,51,48,94,86,75,29.52,29.12,24,10,33,0.24
2013-9-30,57,53,50,52,49,45,94,85,71,29.87,29.37,26,11,37,0.01
2013-10-1,57,52,49,50,48,45,93,84,64,30.05,29.86,23,8,28,0.01
2013-10-2,54,52,50,49,48,47,94,88,79,30.12,30.00,15,4,22,0.01
2013-10-3,57,52,47,49,48,46,95,85,69,30.40,30.13,8,1,10,0.00
2013-10-4,63,52,46,53,48,44,98,88,53,30.43,30.30,6,1,9,0.00
2013-10-5,69,55,47,53,50,46,98,83,51,30.31,30.10,5,0,9,0.00
2013-10-6,72,58,49,55,50,46,99,79,42,30.09,29.83,14,3,24,0.02
2013-10-7,60,56,54,53,50,46,94,83,62,29.97,29.86,21,9,25,0.07
2013-10-8,56,52,47,50,47,44,95,83,66,30.04,29.92,15,2,23,0.02
2013-10-9,56,47,42,49,45,42,99,92,69,30.10,29.91,7,1,8,0.00
2013-10-10,57,52,48,51,48,45,93,86,73,30.03,29.90,6,1,9,0.01
2013-10-11,55,52,50,51,50,49,97,92,82,30.11,30.03,3,0,5,0.01
2013-10-12,58,52,47,51,49,46,97,90,74,30.17,30.03,7,0,12,0.01
2013-10-13,55,49,44,50,47,44,98,92,76,30.33,30.17,10,1,12,0.00
2013-10-14,58,48,42,49,45,42,100,90,65,30.39,30.32,6,1,7,0.01
2013-10-15,59,50,44,52,47,43,99,92,68,30.35,30.14,9,0,11,0.00
2013-10-16,54,51,47,50,49,46,97,92,85,30.16,30.11,11,1,13,0.00
2013-10-17,55,50,47,50,48,46,97,92,83,30.24,30.16,9,2,11,0.00
2013-10-18,55,48,44,51,47,43,100,95,84,30.21,30.11,7,1,13,0.01
2013-10-19,50,47,45,49,46,44,100,97,93,30.16,30.11,6,1,7,0.00
2013-10-20,50,48,47,48,47,46,97,95,92,30.16,30.11,6,1,9,0.00
2013-10-21,51,49,47,49,48,46,98,96,92,30.13,30.06,7,2,7,0.00
2013-10-22,56,49,46,52,48,46,100,97,85,30.08,29.99,7,2,10,0.00
2013-10-23,57,48,45,53,47,45,100,97,81,30.02,29.94,6,1,7,0.01
2013-10-24,50,48,46,50,47,46,100,99,96,30.08,29.98,6,1,7,0.00
2013-10-25,52,50,47,50,48,47,99,95,90,30.24,30.09,7,1,9,0.00
2013-10-26,53,52,50,48,47,46,92,86,82,30.29,30.16,12,3,13,0.00
2013-10-27,56,51,47,50,47,46,100,89,72,30.16,29.86,14,2,21,0.01
2013-10-28,56,51,43,47,41,34,97,72,43,29.91,29.84,24,2,28,0.00
2013-10-29,57,46,38,44,40,37,97,83,51,30.00,29.91,6,1,9,0.00
2013-10-30,56,48,40,48,43,39,97,83,68,30.08,29.99,12,3,19,0.01
2013-10-31,55,52,50,52,49,45,95,89,75,30.21,30.05,17,3,22,0.01
2013-11-1,59,54,53,52,51,50,96,89,76,30.23,29.80,7,1,9,0.00
2013-11-2,55,51,46,52,46,40,97,83,68,29.83,29.45,34,8,43,0.02
2013-11-3,52,46,42,43,41,39,95,86,67,30.06,29.84,10,1,12,0.01
2013-11-4,49,44,39,42,40,36,100,85,63,30.15,30.02,5,1,7,0.03
2013-11-5,54,48,45,50,46,42,98,92,81,30.21,29.97,17,2,21,0.01
2013-11-6,51,48,45,48,46,44,96,90,82,30.28,29.99,6,0,9,0.04
2013-11-7,52,50,49,50,48,46,97,92,82,29.99,29.67,25,8,31,0.01
2013-11-8,54,50,46,46,45,44,94,84,72,30.11,29.93,13,3,17,0.00
2013-11-9,51,46,41,46,44,40,98,91,77,30.11,30.03,6,1,7,0.01
2013-11-10,49,47,46,47,45,44,96,92,87,30.11,30.05,10,2,12,0.01
2013-11-11,58,48,43,50,46,42,98,91,71,30.11,29.96,9,0,10,0.00
2013-11-12,58,53,46,54,50,44,97,91,82,30.31,29.98,16,4,22,0.01
2013-11-13,55,53,51,51,49,48,93,87,79,30.39,30.27,18,3,23,0.00
2013-11-14,50,48,44,48,46,44,100,96,90,30.27,30.02,6,0,10,0.01
2013-11-15,50,46,44,48,44,41,98,92,85,30.02,29.28,26,7,36,0.06
2013-11-16,49,46,42,45,40,38,96,82,68,29.72,29.31,16,5,20,0.01
2013-11-17,52,48,45,48,44,40,92,87,79,29.85,29.73,28,10,36,0.00
2013-11-18,53,50,48,52,49,46,98,95,88,29.85,29.51,15,5,25,0.09
2013-11-19,54,45,40,52,38,25,94,78,50,30.02,29.50,27,5,34,0.01
2013-11-20,43,38,35,33,29,25,84,71,50,30.46,30.03,14,2,16,0.00
2013-11-21,44,36,31,33,29,26,92,76,49,30.62,30.47,8,1,11,0.00
2013-11-22,46,38,32,34,30,28,89,75,50,30.61,30.42,7,1,12,0.00
2013-11-23,52,40,33,39,35,31,99,82,55,30.41,30.15,5,0,9,0.00
2013-11-24,50,40,34,44,38,33,98,91,76,30.21,30.12,5,0,8,0.00
2013-11-25,50,41,36,43,39,35,98,92,75,30.27,30.21,12,0,15,0.00
2013-11-26,49,43,37,45,41,36,99,92,74,30.22,30.06,5,1,6,0.01
2013-11-27,56,47,40,46,42,38,96,85,63,30.05,29.91,6,0,7,0.00
2013-11-28,45,41,37,45,40,36,100,98,96,30.13,29.98,4,0,6,0.00
2013-11-29,48,45,40,47,44,40,100,95,86,30.27,30.13,6,1,9,0.00
2013-11-30,51,49,46,49,46,44,95,89,84,30.28,30.05,20,7,26,0.04
2013-12-1,55,52,44,52,48,40,97,88,78,30.04,29.69,29,10,36,0.01
2013-12-2,44,41,37,40,36,33,95,84,66,30.02,29.77,13,4,15,0.07
2013-12-3,39,36,31,34,28,24,91,73,55,30.27,30.02,14,2,18,0.00
2013-12-4,37,32,28,29,27,25,94,83,64,30.31,30.25,5,0,9,0.01
2013-12-5,34,30,27,27,24,17,95,77,54,30.28,30.15,14,2,15,0.00
2013-12-6,32,29,25,18,14,11,60,52,43,30.19,30.10,17,9,22,0.00
2013-12-7,30,25,22,16,11,5,74,54,36,30.38,30.19,9,2,15,0.00
2013-12-8,33,27,22,24,19,15,82,71,56,30.53,30.38,5,0,6,0.00
2013-12-9,34,31,25,29,24,18,88,75,62,30.54,30.44,5,1,9,0.00
2013-12-10,39,37,33,35,33,26,89,86,77,30.45,30.37,6,1,9,0.00
2013-12-11,40,36,32,36,34,30,96,92,84,30.38,30.13,4,0,5,0.00
2013-12-12,42,38,33,42,37,32,100,95,78,30.12,30.01,10,2,13,0.04
2013-12-13,49,46,42,47,45,41,98,96,90,30.37,30.08,11,2,13,0.01
2013-12-14,49,47,45,46,44,43,96,91,85,30.39,30.28,11,3,14,0.00
2013-12-15,52,49,47,49,47,44,98,93,86,30.41,30.27,18,5,22,0.03
2013-12-16,47,44,41,46,44,40,100,97,91,30.45,30.24,5,1,6,0.00
2013-12-17,45,42,40,43,41,40,100,96,89,30.23,30.07,13,3,15,0.01
2013-12-18,45,43,39,43,38,33,95,84,66,30.11,29.99,14,2,21,0.01
2013-12-19,39,36,32,36,29,23,91,76,53,30.31,30.11,6,1,10,0.00
2013-12-20,43,37,33,42,36,29,99,93,77,30.16,29.67,18,4,33,0.07
2013-12-21,45,42,40,45,42,39,100,98,96,30.12,29.80,5,0,6,0.04
2013-12-22,50,47,45,49,47,45,100,99,94,30.25,30.11,17,3,23,0.02
2013-12-23,54,49,44,49,46,41,96,90,77,30.47,30.08,31,10,40,0.01
2013-12-24,46,41,36,42,39,35,98,93,81,30.58,30.47,5,0,7,0.00
2013-12-25,40,36,33,38,35,32,100,97,86,30.50,30.36,6,1,7,0.00
2013-12-26,43,38,36,40,37,35,99,97,92,30.36,30.16,4,0,6,0.00
2013-12-27,46,41,37,45,41,37,100,98,90,30.32,30.08,14,1,17,0.01
2013-12-28,47,44,38,44,42,38,100,96,85,30.48,30.33,5,0,7,0.00
2013-12-29,43,40,38,41,39,37,100,97,92,30.44,30.27,5,1,6,0.01
2013-12-30,45,42,40,43,41,39,99,96,90,30.28,30.09,17,1,20,0.00
2013-12-31,46,44,40,45,43,40,99,96,87,30.33,30.15,10,1,12,0.01
2014-1-1,43,41,38,43,40,37,100,99,95,30.37,30.21,5,0,7,0.01
2014-1-2,52,46,43,46,44,42,98,92,73,30.21,29.85,18,4,26,0.20